Погода в Светлом

Россия / Ставропольский край     45°32′51″N   41°18′55″E
темп.,
°C
ветер,
м/с
пор.,
м/с
влажн.,
%
обл.,
%
осадки,
мм/ч
давл.,
гПа
погр.,
м
27 января, ср
ср2700:00+4вюв4878100 0.0 101797
03:00+4юв4580100 0.0 101583
06:00+3вюв5877100 0.0 101497
09:00+3в4779100 0.0 101397
12:00+5в4788100 0.0 1012102
15:00+6в61175100 0.0 1009182
18:00+4в61180100 0.0 1008203
21:00+2в4888100 0.0 1007158
28 января, чт
чт2800:00+2в4586100 0.0 100677
03:00+2в3386100 0.0 100534
06:00+2в2288100 0.0 100423
09:00+2всв2286100 0.0 100429
12:00+6зсз237560 0.0 1005171
15:00+7з4108080 0.0 1006553
18:00+6зсз51396100 0.8 1008737
21:00+5зюз399499 0.9 1010392
29 января, пт
пт2900:00+3з3119275 0.1 1012532
03:00+2зюз278479 0.1 1012295
06:00+1юз1183100 0.0 101322
09:00+2ю3684100 0.0 1013177
12:00+4ююз4683100 0.0 1013599
15:00+4ююз4783100 0.3 1012570
18:00+3ю599291 0.4 1014315
21:00+2ю589066 0.4 1015212
30 января, сб
сб3000:00+2ю368841 0.0 101593
03:00+1ююв468650 0.0 1014103
06:00+1ююв468225 0.0 101399
09:00+2ююв467728 0.0 1013142
12:00+6ююв355866 0.0 1011288
15:00+7юв246078 0.0 1009477
18:00+4вюв487764 0.0 1009161
21:00+3вюв498538 0.0 1007224
31 января, вс
вс3100:00+1юв348597 0.0 100689
03:00+1юв368399 0.0 100597
06:00+3юв346997 0.0 100554
09:00+4зюз236398 0.0 100735
12:00+9юз61265100 0.0 1009804
15:00+10зюз51268100 0.0 10101176
18:00+8зюз41483100 0.0 1013522
21:00+7юз41383100 0.1 1015491